Regional Weather Roundup
Issued by NWS

Home | Current Version | Previous Version | Graphics & Text | Print | Product List | Glossary On
Versions: 1 2 3 4 5 6 7 8 9 10 11 12 13 14 15 16 17 18 19 20 21 22 23 24 25 26 27 28 29 30 31 32 33 34 35 36 37 38 39 40 41 42 43 44 45 46 47 48 49 50
831
ASUS43 KFSD 241902
RWRSD

WEATHER ROUNDUP FOR SOUTH DAKOTA
NATIONAL WEATHER SERVICE SIOUX FALLS SD
200 PM CDT WED AUG 24 2016

NOTE: "FAIR" INDICATES FEW OR NO CLOUDS BELOW 12,000 FEET WITH NO
SIGNIFICANT WEATHER AND/OR OBSTRUCTIONS TO VISIBILITY.


SDZ001>005-009-010-012>017-242000-
NORTHWEST AND NORTH CENTRAL SOUTH DAKOTA

CITY           SKY/WX    TMP DP  RH WIND       PRES   REMARKS
BUFFALO          N/A     71  45  39 NW24G35   30.08F
MOBRIDGE       MOSUNNY   77  48  35 NW15G23   30.04S
$$

SDZ012>016-024>037-041>051-057-063-072>074-242000-
SOUTHWEST AND SOUTH CENTRAL SOUTH DAKOTA

CITY           SKY/WX    TMP DP  RH WIND       PRES   REMARKS
RAPID CTY ARPT SUNNY     73  46  38 VRB3      30.17F
PIERRE         PTSUNNY   73  48  41 W14G23    30.09F
CUSTER         SUNNY     66  33  29 SW8G20    30.25F
ELLSWORTH AFB  SUNNY     72  45  38 NW10G17   30.16
PHILIP         CLOUDY    74  49  41 W9        30.13F
PINE RIDGE     PTSUNNY   70  46  42 VRB3      30.19F
WINNER         LGT RAIN  69  53  56 NW12      30.12F
$$

SDZ004>011-016>023-039-040-242000-
NORTHEAST SOUTH DAKOTA

CITY           SKY/WX    TMP DP  RH WIND       PRES   REMARKS
ABERDEEN       MOSUNNY   75  52  44 W15       30.04R
WATERTOWN      SUNNY     74  52  46 W16G24    30.04S
BROOKINGS      PTSUNNY   70  55  59 NW13      30.05R
$$

SDZ017-020-022-023-036>040-048>070-242000-
SOUTHEAST SOUTH DAKOTA

CITY           SKY/WX    TMP DP  RH WIND       PRES   REMARKS
SIOUX FALLS    CLOUDY    76  58  53 NW9       30.05F
HURON          CLOUDY    76  52  43 NW13      30.05F
CHAMBERLAIN    CLOUDY    74  51  44 NW14      30.09F
MITCHELL       CLOUDY    75  57  53 NW10      30.06F
YANKTON        CLOUDY    73  54  49 N13G18    30.05F
$$

ABBREVIATIONS USED IN REMARKS
   TC - TEMPERATURE IN CELSIUS
  WCI - WIND CHILL INDEX
   HX - HEAT INDEX
  VSB - VISIBILITY





USA.gov is the U.S. government's official web portal to all federal, state and local government web resources and services.